Погода в Лагани

Погода в Лагани : погода сейчас, прогноз погоды и архив. Всё, что Вы хотите узнать о погоде в Лагани!

Поиск расширенной информации на нашем сайте:

Другие новости

Новости СМИ2

Главная страница сайта

Новости сайта

03.07.2017

Напоминаем, что на нашем специализированном сайте Метеоцентр.Азия вы можете получить высокодетализированные автоматические прогнозы погоды по пунктам России, СНГ и мира в авиационном формате (включающие направление и скорость ветра, видимость, явления погоды, количество и форму облачности, нижнюю и верхнюю границу облачности).


Погода в Лагани - сегодня

Время (UTC), дата Ветер
(°,м/с) 
Видим.   Явления Облачность Т
(°С)
Тd
(°С)
f(%) Тe
(°С)
Pmin
(гПа)
dP
(гПа)
Po
(мм)
O2
(г/м3)
Тmin Tmax R s Состояние
почвы
21 18.05.18 100 (В) 20000 м    ясно 
+17.8 +12.9 73 +23  1015.8  -1.1  764  286           
00 19.05.18 140 (ЮВ) 10 км    ясно 
+15.4 +12.2 81 +20  1015.1  -0.7  763  289           
03 19.05.18 120 (ЮВ) 20000 м    5/0 верхняя 
[Ci sp]
+19.7 +14.6 72 +29  1015.4  0.3  764  284  +14.3        сухая 
06 19.05.18 100 (В) 20000 м    9/0 средняя, верхняя 
[Ac trans|Ci fib]
+22.7 +14.7 61 +30  1015.7  0.2  764  281           
09 19.05.18 090 (В) 20000 м    9/0 верхняя 
[Ci sp]
+24.9 +14.3 52 +32  1015.3  -0.4  763  279           
12 19.05.18 100 (В) 20000 м    9/0 средняя, верхняя 
[Ac trans|Ci sp]
+24.9 +15.5 56 +34  1014.8  -0.4  763  279           
15 19.05.18 110 (В) 20000 м    9/0 средняя, верхняя 
[Ac trans|Ci sp]
+22.6 +17 71 +34  1014.6  -0.2  763  280    +25.2       
18 19.05.18 110 (В) 10 км    8/0 средняя, верхняя 
[Ac trans|Ci fib]
+18.1 +16.4 90 +30  1015.4  0.8  764  285           
21 19.05.18 100 (В) 10 км    8/0 средняя, верхняя 
[Ac trans|Ci fib]
+18.1 +16.7 92 +30  1014.6  0.8  763  285           
00 20.05.18 100 (В) 10 км    9/0 средняя, верхняя 
[Ac trans|Ci fib]
+17.4 +16 91 +28  1014.6  763  286           
03 20.05.18 100 (В) 10 км    9/0 средняя, верхняя 
[Ac trans|Ci fib]
+19.9 +16.9 83 +33  1014.9  0.3  763  283  +16.1        сухая 
06 20.05.18 110 (В) 7{10}  20000 м    8/0 средняя, верхняя 
[Ac trans|Ci sp]
+24.1 +13.2 51 +29  1015.3  0.3  763  280           
09 20.05.18 100 (В) 7{12}  20000 м    8/0 средняя, верхняя 
[Ac cast|Ci sp]
+25.8 +10.4 38 +27  1015  -0.3  763  279           
12 20.05.18 110 (В) 7{12}  20000 м    6/0 средняя, верхняя 
[Ac cast|Ci sp]
+25 +12.5 46 +29  1014.2  -0.7  763  279           
15 20.05.18 120 (ЮВ) 7{10}  20000 м    5/0 средняя, верхняя 
[Ac cast|Ci sp]
+22.8 +13.6 56 +29  1013.4  -0.9  762  281    +26.9       
18 20.05.18 110 (В) 20000 м    6/0 средняя, верхняя 
[Ac cuf|Ci sp]
+20.3 +14.5 69 +28  1013.8  0.5  762  283           
21 20.05.18 100 (В) 20000 м    8/0 средняя, верхняя 
[Ac cuf|Ci sp]
+21.6 +14.3 63 +29  1013.4  -0.4  762  282           
00 21.05.18 090 (В) 20000 м    4/0 средняя 
[Ac trans]
+20.6 +13.5 64 +26  1012.2  -1.2  761  283           
03 21.05.18 110 (В) 20000 м    8/0 средняя, верхняя 
[Ac cast|Ci sp]
+22 +13.8 60 +28  1012.5  0.3  761  281  +19.3        сухая 
06 21.05.18 150 (ЮВ) 9-12{14}  10 км  пыльный позёмок  8/4 600 м средняя, верхняя 
[Sc diur, vesp|Ac trans|Ci sp]
+23.2 +15.8 63 +33  1013.4  0.9  762  280           
09 21.05.18 120 (ЮВ) 8-10{14}  10 км  пыльный позёмок  8/3 1000 м кучево-дожд., средняя, верхняя 
[Cb cap|Ac cuf|Ci sp]
+27.3 +11.3 37 +30  1014.1  0.6  762  277           
12 21.05.18 120 (ЮВ) 7-11{14}  10 км  пыльный позёмок  6/3 1000 м кучево-дожд., средняя, верхняя 
[Cb calv|Ac cuf|Ci sp]
+27.6 +9.1 31 +28  1013.8  -0.3  762  277           
15 21.05.18 100 (В) 6{11}  20000 м    4/0 средняя, верхняя 
[Ac cuf|Ci sp]
+24.5 +10.7 42 +26  1013.6  -0.1  762  280    +28.5       
18 21.05.18 100 (В) 20000 м    5/0 верхняя 
[Ci fib]
+20.1 +15.1 73 +28  1014.9  1.3  763  283           
21 21.05.18 100 (В) 10 км    4/0 верхняя 
[Ci sp]
+19.7 +16.7 83 +32  1015.3  0.4  763  283           
Время (UTC), дата Ветер
(°,м/с) 
Видим.   Явления Облачность Т
(°С)
Тd
(°С)
f(%) Тe
(°С)
Pmin
(гПа)
dP
(гПа)
Po
(мм)
O2
(г/м3)
Тmin Tmax R s Состояние
почвы

Для получения пояснительной информации подведите курсор к названию столбца.

ПОГОДА в Лагани - архив

Всё, что Вы хотите узнать о погоде в Лагани - удобно и подробно!

Выберите нужную дату (начиная с 1 января 2015* года) и нажмите кнопку "Найти".
Будут отображены архивные сводки погоды по пункту Лагань, начиная с указанной даты.


Отображать данные в формате CSV (для использования в таблицах Excel)


Внимание! Наш архив погоды предназначен исключительно для личного некоммерческого использования в познавательных целях. Если Вам необходимы официальные справки о состоянии погоды (для производственных, юридических, коммерческих и т.п. целей), обращайтесь в органы Росгидромета.

*Примечание: данная дата относится к архиву по метеостанциям СССР (Россия, СНГ, Балтия).
Архив по метеостанциям Зарубежной Европы и Азии (кроме Китая) хранится 10 дней, по другим регионам земного шара (Китай, Африка, Америка, Австралия, Океания) - 1 день.

Лагань - район местоположения метеостанции


Название, широта, долгота, высота метеостанции:
Лагань 45.4°ш. 47.3°д. -24 м над ур. моря [Российская Федерация]

Дополнительная информация

В oтличие oт бoльшинства пoгoдных сайтoв мы публикуем пoдрoбную метеoинфoрмацию в детальнoм прoфессиoнальнoм фoрмате.

Характеристики температуры и влажнoсти вoздуха измеряются на высoте 2 м в тени вдали oт зданий и деревьев.
Скoрoсть ветра измеряется на высoте 10 м (на урoвне рoста челoвека скoрoсть ветра ниже в 1.5-2 раза). Если метеoстанция нахoдится в гoрoде или в лесу, тo скoрoсть ветра занижена на 2-4 м/с пo сравнению с oткрытым местoм. Скoрoсть ветра над акватoриями крупных рек и oзёр, а также на вершинах хoлмoв на 2-5 м/с выше, чем в oбычных услoвиях.
Атмoсфернoе давление в разных тoчках местнoсти мoжет значительнo oтличаться oт давления на метеoстанции, в зависимoсти oт услoвий рельефа (при пoдъёме на 10 м давление пoнижается примернo на 1 мм рт.ст.).